This demonstration page uses our WeatherBlox Daily Observations layout. Learn more.

Left ArrowRight Arrow

Hourly Observations for July 11, 2021

Temp ( °F °C ) Dew Point ( °F °C ) Humidity (%) Winds ( mph kmh ) Pressure ( in mb ) Visibility ( mi km ) Precip ( " mm )
12:53 am 00:53 Clear 74 23.3 45 7.2 36 36 NNW 5 7 29.89 1012 10 16 0.00 0.00
1:53 am 01:53 Clear 68 20 47 8.3 47 47 NNE 3 6 29.88 1012 10 16 0.00 0.00
2:53 am 02:53 Clear 62 16.7 47 8.3 58 58 Calm 29.88 1012 10 16 0.00 0.00
3:53 am 03:53 Clear 58 14.4 47 8.3 67 67 Calm 29.88 1012 10 16 0.00 0.00
4:53 am 04:53 Clear 53 11.7 46 7.8 77 77 WNW 3 6 29.90 1013 10 16 0.00 0.00
5:53 am 05:53 Sunny 54 12.2 47 8.3 77 77 SSW 6 9 29.91 1013 10 16 0.00 0.00
6:53 am 06:53 Sunny 62 16.7 48 8.9 60 60 SW 7 11 29.90 1012 10 16 0.00 0.00
7:53 am 07:53 Sunny 67 19.4 46 7.8 47 47 WSW 12 19 29.90 1013 10 16 0.00 0.00
8:53 am 08:53 Sunny 75 23.9 43 6.1 32 32 SW 10 17 29.89 1012 10 16 0.00 0.00
9:53 am 09:53 Sunny 80 26.7 41 5 25 25 W 13 20 29.89 1012 9 14 0.00 0.00
10:53 am 10:53 Sunny 84 28.9 42 5.6 23 23 W 12 19 29.88 1012 8 13 0.00 0.00
11:53 am 11:53 Sunny 86 30 44 6.7 23 23 WSW 10 17 29.87 1011 8 13 0.00 0.00
12:53 pm 12:53 Sunny 88 31.1 50 10 27 27 WNW 15 24 29.86 1011 10 16 0.00 0.00
1:53 pm 13:53 Sunny 89 31.7 51 10.6 27 27 WNW 20 31 29.86 1011 10 16 0.00 0.00
2:53 pm 14:53 Sunny 90 32.2 50 10 25 25 WNW 20 31 29.87 1011 10 16 0.00 0.00
3:53 pm 15:53 Sunny 90 32.2 49 9.4 24 24 NNW 21 33 29.87 1012 10 16 0.00 0.00
4:53 pm 16:53 Sunny 86 30 50 10 29 29 N 31 50 29.91 1013 10 16 0.00 0.00
5:53 pm 17:53 Mostly Cloudy with Light Rain 73 22.8 49 9.4 43 43 NW 44 70 30.03 1017 10 16 0.00 0.00
6:53 pm 18:53 Sunny 77 25 47 8.3 35 35 N 17 28 29.96 1015 10 16 0.00 0.00
7:53 pm 19:53 Sunny 76 24.4 47 8.3 36 36 NE 12 19 29.96 1015 10 16 0.00 0.00
8:53 pm 20:53 Sunny 72 22.2 47 8.3 41 41 NNE 5 7 29.97 1015 10 16 0.00 0.00
9:53 pm 21:53 Clear 67 19.4 48 8.9 51 51 Calm 29.99 1016 10 16 0.00 0.00
10:53 pm 22:53 Clear 60 15.6 47 8.3 62 62 Calm 30.01 1016 10 16 0.00 0.00
11:53 pm 23:53 Clear 57 13.9 45 7.2 64 64 Calm 30.02 1017 10 16 0.00 0.00

Powered by AerisWeather